Location: DARK SKY Beskydy - Park tmavé oblohy, www.darkskybeskydy.cz
(49.4926°N, 18.5016°E)
Time: 00:26:40
(UTC+02:00)

Vanguard 1 - Pass Details

Date: 25 February 2024
Orbit: 653 x 3825 km, 34.2° (Epoch: 21 April)

Event Time Altitude Azimuth Distance (km) Brightness Sun altitude
Rises 18:06:48 0° 206° (SSW) 5,056 14.2 -8.1°
Reaches altitude 10° 18:10:16 10° 195° (SSW) 4,472 13.7 -8.7°
Maximum altitude 18:20:58 29° 141° (SE) 4,187 12.9 -10.4°
Enters shadow 18:34:11 14° 96° (E) 6,186 13.4 -12.6°
Drops below altitude 10° 18:36:38 10° 92° (E) 6,644 - -13.0°
Sets 18:43:20 0° 83° (E) 7,898 - -14.1°
